Date String (YYYY-MM-DD hh:mm:ss) UTC,Instrument flags,Ambient pressure (hPa),Sample flow (lpm),Bypass flow (lpm),Sample temperature (°C),Ambient temperature (°C),ASC tube jacket temperature (°C),LED temperature (°C),Box temperature (°C),Sample RH (%),Span deviation,Mass concentration (μg/m³),Mass concentration (μg/m³),Mass concentration (μg/m³)
DateTimeUTC,F1_M11,P_M11,Q1_M11,Q2_M11,T1_M11,T2_M11,T3_M11,T4_M11,T5_M11,U1_M11,ZSPAN_M11,X0_M11,X2_M11,X1_M11
2022-08-02 12:00:00,,0826.2,4.99,0.00,29.7,27.5,00.0,38.5,31.4,24.4,0002.4,0014.67,0010.88,0010.37
2022-08-02 12:01:00,,0826.2,5.01,0.00,29.6,27.6,00.0,38.5,31.4,24.6,0002.2,0014.46,0010.86,0010.37
2022-08-02 12:02:00,,0826.2,4.99,0.00,29.6,27.7,00.0,38.5,31.4,24.5,0002.0,0014.89,0010.84,0010.36
2022-08-02 12:03:00,,0826.1,5.00,0.00,29.6,27.8,00.0,38.4,31.4,24.6,0002.0,0014.51,0010.76,0010.31
2022-08-02 12:04:00,,0826.2,4.99,0.00,29.6,27.9,00.0,38.4,31.4,24.6,0002.2,0014.04,0010.71,0010.27
2022-08-02 12:05:00,,0826.2,5.00,0.00,29.6,28.1,00.0,38.4,31.5,24.4,0002.3,0013.85,0010.65,0010.21
2022-08-02 12:06:00,,0826.2,5.00,0.00,29.6,28.2,00.0,38.4,31.5,24.4,0002.4,0013.88,0010.60,0010.15
2022-08-02 12:07:00,,0826.2,5.00,0.00,29.6,28.3,00.0,38.4,31.5,24.3,0002.3,0013.91,0010.54,0010.10
2022-08-02 12:08:00,,0826.2,5.00,0.00,29.6,28.4,00.0,38.4,31.5,24.2,0001.9,0014.52,0010.49,0010.04
2022-08-02 12:09:00,,0826.2,4.99,0.00,29.7,28.5,00.0,38.5,31.6,24.1,0002.1,0014.67,0010.45,0009.99
2022-08-02 12:10:00,,0826.2,5.00,0.00,29.7,28.5,00.0,38.5,31.6,24.0,0002.0,0014.88,0010.36,0009.90
2022-08-02 12:11:00,,0826.3,5.00,0.00,29.7,28.6,00.0,38.5,31.6,24.0,0002.3,0015.10,0010.28,0009.83
2022-08-02 12:12:00,,0826.2,5.00,0.00,29.7,28.7,00.0,38.5,31.7,23.9,0002.4,0015.16,0010.22,0009.76
2022-08-02 12:13:00,,0826.2,5.00,0.00,29.8,28.7,00.0,38.5,31.7,23.9,0002.7,0014.59,0010.20,0009.71
2022-08-02 12:14:00,,0826.2,4.99,0.00,29.8,28.8,00.0,38.5,31.7,24.2,0003.0,0014.67,0010.19,0009.66
2022-08-02 12:15:00,,0826.2,4.98,0.00,29.8,28.8,00.0,38.5,31.8,24.1,0002.9,0014.50,0010.12,0009.60
2022-08-02 12:16:00,,0826.2,5.00,0.00,29.8,28.9,00.0,38.6,31.8,23.8,0002.6,0014.35,0010.05,0009.56
2022-08-02 12:17:00,,0826.2,5.02,0.00,29.9,28.6,00.0,38.6,31.8,23.7,0002.6,0014.24,0010.00,0009.52
2022-08-02 12:18:00,,0826.2,4.99,0.00,29.8,27.7,00.0,38.5,31.5,23.7,0002.6,0014.16,0009.99,0009.49
2022-08-02 12:19:00,,0826.2,5.00,0.00,29.7,27.0,00.0,38.5,31.3,23.8,0002.6,0013.55,0009.98,0009.49
2022-08-02 12:20:00,,0826.2,5.00,0.00,29.6,26.9,00.0,38.4,31.3,24.0,0002.2,0013.42,0009.98,0009.48
2022-08-02 12:21:00,,0826.3,5.00,0.00,29.5,27.0,00.0,38.4,31.2,24.2,0002.1,0013.14,0009.98,0009.48
2022-08-02 12:22:00,,0826.3,5.01,0.00,29.5,27.1,00.0,38.4,31.2,24.3,0002.1,0012.88,0009.97,0009.48
2022-08-02 12:23:00,,0826.3,4.99,0.00,29.5,27.3,00.0,38.4,31.2,24.3,0002.1,0012.78,0009.96,0009.49
2022-08-02 12:24:00,,0826.3,4.99,0.00,29.5,27.5,00.0,38.3,31.3,24.4,0002.0,0012.79,0009.99,0009.52
2022-08-02 12:25:00,,0826.2,5.00,0.00,29.4,27.7,00.0,38.3,31.3,24.5,0001.7,0012.74,0010.01,0009.57
2022-08-02 12:26:00,,0826.4,5.00,0.00,29.5,27.8,00.0,38.3,31.3,24.4,0001.4,0013.09,0010.08,0009.62
2022-08-02 12:27:00,,0826.2,5.00,0.00,29.5,28.0,00.0,38.3,31.3,24.3,0001.5,0013.21,0010.14,0009.65
2022-08-02 12:28:00,,0826.2,5.00,0.00,29.5,28.1,00.0,38.3,31.4,24.3,0001.2,0013.14,0010.15,0009.68
2022-08-02 12:29:00,,0826.2,5.00,0.00,29.5,28.2,00.0,38.3,31.4,24.4,0000.9,0013.02,0010.15,0009.70
2022-08-02 12:30:00,,0826.2,5.01,0.00,29.5,28.3,00.0,38.3,31.4,24.4,0001.1,0013.02,0010.16,0009.71
2022-08-02 12:31:00,,0826.3,4.98,0.00,29.5,28.4,00.0,38.3,31.5,24.4,0001.3,0013.02,0010.19,0009.73
2022-08-02 12:32:00,,0826.2,5.01,0.00,29.6,28.5,00.0,38.3,31.5,24.4,0001.4,0013.08,0010.26,0009.77
2022-08-02 12:33:00,,0826.2,5.00,0.00,29.6,28.5,00.0,38.4,31.5,25.3,0001.6,0013.02,0010.28,0009.78
2022-08-02 12:34:00,,0826.3,5.00,0.00,29.6,28.6,00.0,38.4,31.6,25.5,0001.8,0013.03,0010.28,0009.77
2022-08-02 12:35:00,,0826.4,4.99,0.00,29.7,28.7,00.0,38.4,31.6,24.8,0002.0,0013.20,0010.28,0009.77
2022-08-02 12:36:00,,0826.4,5.01,0.00,29.7,28.7,00.0,38.4,31.7,24.4,0002.5,0013.23,0010.31,0009.79
2022-08-02 12:37:00,,0826.4,5.00,0.00,29.7,28.8,00.0,38.4,31.7,24.3,0002.7,0012.95,0010.32,0009.81
2022-08-02 12:38:00,,0826.4,4.99,0.00,29.7,28.8,00.0,38.5,31.7,24.3,0002.5,0012.98,0010.33,0009.82
2022-08-02 12:39:00,,0826.4,5.01,0.00,29.8,28.9,00.0,38.5,31.7,24.3,0002.6,0013.22,0010.41,0009.85
2022-08-02 12:40:00,,0826.4,5.00,0.00,29.8,28.9,00.0,38.5,31.7,24.1,0002.8,0013.38,0010.49,0009.87
2022-08-02 12:41:00,,0826.4,4.99,0.00,29.8,28.3,00.0,38.5,31.7,24.0,0002.7,0013.42,0010.52,0009.91
2022-08-02 12:42:00,,0826.4,5.01,0.00,29.8,27.8,00.0,38.5,31.6,24.0,0002.9,0013.63,0010.51,0009.92
2022-08-02 12:43:00,,0826.3,4.99,0.00,29.7,27.7,00.0,38.4,31.4,24.0,0002.8,0014.13,0010.53,0009.92
2022-08-02 12:44:00,,0826.3,5.02,0.00,29.6,27.7,00.0,38.4,31.4,24.1,0002.7,0014.60,0010.62,0009.96
2022-08-02 12:45:00,,0826.3,4.99,0.00,29.6,27.8,00.0,38.4,31.4,24.1,0002.5,0014.91,0010.67,0010.01
2022-08-02 12:46:00,,0826.4,5.02,0.00,29.6,27.9,00.0,38.4,31.4,24.1,0002.6,0015.16,0010.67,0010.02
2022-08-02 12:47:00,,0826.4,5.00,0.00,29.6,28.0,00.0,38.4,31.5,24.1,0002.5,0015.67,0010.67,0010.04
2022-08-02 12:48:00,,0826.4,5.00,0.00,29.6,28.1,00.0,38.4,31.5,24.1,0002.5,0016.08,0010.67,0010.03
2022-08-02 12:49:00,,0826.4,4.99,0.00,29.6,28.3,00.0,38.4,31.5,24.1,0002.7,0016.11,0010.68,0010.04
2022-08-02 12:50:00,,0826.3,5.01,0.00,29.6,28.4,00.0,38.4,31.5,24.1,0002.9,0016.26,0010.64,0010.05
2022-08-02 12:51:00,,0826.4,5.00,0.00,29.7,28.5,00.0,38.4,31.5,24.1,0002.9,0016.29,0010.57,0010.03
2022-08-02 12:52:00,,0826.3,5.00,0.00,29.7,28.5,00.0,38.5,31.6,24.1,0002.7,0016.30,0010.56,0010.03
2022-08-02 12:53:00,,0826.3,5.00,0.00,29.7,28.6,00.0,38.5,31.7,24.1,0002.3,0016.28,0010.54,0010.03
2022-08-02 12:54:00,,0826.3,5.00,0.00,29.7,28.7,00.0,38.5,31.7,24.0,0002.0,0015.62,0010.51,0010.04
2022-08-02 12:55:00,,0826.3,4.99,0.00,29.8,28.7,00.0,38.5,31.7,23.9,0001.9,0015.35,0010.47,0010.02
2022-08-02 12:56:00,,0826.3,5.00,0.00,29.8,28.8,00.0,38.5,31.7,23.9,0001.8,0015.15,0010.42,0009.99
2022-08-02 12:57:00,,0826.3,5.00,0.00,29.8,28.8,00.0,38.5,31.8,23.9,0001.7,0014.56,0010.37,0009.98
2022-08-02 12:58:00,,0826.3,5.01,0.00,29.8,28.9,00.0,38.6,31.8,23.8,0001.5,0014.17,0010.30,0009.93
2022-08-02 12:59:00,,0826.4,5.00,0.00,29.9,28.8,00.0,38.6,31.8,23.8,0001.3,0013.68,0010.24,0009.90
